Terminal Aerodrome Forecast
Issued by NWS

Current Version | Previous Version | Graphics & Text | Print | Product List | Glossary On
Versions: 1 2 3 4 5 6 7 8 9 10 11 12 13 14 15 16 17 18 19 20 21 22 23 24 25
000
FTUS41 KILN 291900 AAB
TAFLCK
TAF AMD
KLCK 291956Z 2920/3018 13010KT P6SM VCSH OVC018
      TEMPO 2920/2923 3SM -SHRA BR SCT008 OVC015
     FM300000 16012KT P6SM VCSH BKN035
     FM300400 23010KT P6SM BKN035
     FM301400 23010KT P6SM VCSH BKN040=

USA.gov is the U.S. government's official web portal to all federal, state and local government web resources and services.